TimeCST,TemperatureF,Dew PointF,Humidity,Sea Level PressureIn,VisibilityMPH,Wind Direction,Wind SpeedMPH,Gust SpeedMPH,PrecipitationIn,Events,Conditions,WindDirDegrees,DateUTC
12:53 AM,21.0,16.0,81,30.40,10.0,NW,4.6,-,N/A,,Clear,320,2013-03-02 06:53:00
1:53 AM,19.0,14.0,81,30.40,10.0,WNW,5.8,-,N/A,,Clear,290,2013-03-02 07:53:00
2:53 AM,19.9,15.1,81,30.41,10.0,WNW,8.1,-,N/A,,Clear,300,2013-03-02 08:53:00
3:53 AM,19.0,15.1,85,30.40,10.0,NW,3.5,-,N/A,,Clear,320,2013-03-02 09:53:00
4:53 AM,18.0,14.0,84,30.42,10.0,WNW,4.6,-,N/A,,Clear,290,2013-03-02 10:53:00
5:53 AM,19.0,14.0,81,30.41,10.0,Calm,Calm,-,N/A,,Clear,0,2013-03-02 11:53:00
6:53 AM,17.1,12.9,84,30.41,10.0,Calm,Calm,-,N/A,,Clear,0,2013-03-02 12:53:00
7:53 AM,19.0,15.1,85,30.40,10.0,Calm,Calm,-,N/A,,Clear,0,2013-03-02 13:53:00
8:53 AM,21.9,18.0,85,30.40,10.0,Calm,Calm,-,N/A,,Clear,0,2013-03-02 14:53:00
9:53 AM,26.1,19.9,78,30.38,10.0,South,5.8,-,N/A,,Partly Cloudy,170,2013-03-02 15:53:00
10:53 AM,28.0,21.0,75,30.39,10.0,SSE,5.8,-,N/A,,Partly Cloudy,160,2013-03-02 16:53:00
11:53 AM,32.0,21.9,66,30.38,10.0,SSW,6.9,-,N/A,,Partly Cloudy,200,2013-03-02 17:53:00
12:53 PM,34.0,23.0,64,30.35,10.0,South,8.1,-,N/A,,Clear,180,2013-03-02 18:53:00
1:53 PM,35.1,24.1,64,30.31,10.0,South,6.9,-,N/A,,Clear,170,2013-03-02 19:53:00
2:53 PM,37.0,24.1,59,30.29,10.0,SSE,10.4,-,N/A,,Clear,160,2013-03-02 20:53:00
3:53 PM,37.9,25.0,60,30.26,10.0,South,8.1,-,N/A,,Clear,180,2013-03-02 21:53:00
4:53 PM,37.0,25.0,62,30.24,10.0,South,9.2,-,N/A,,Clear,170,2013-03-02 22:53:00
5:53 PM,35.1,25.0,67,30.23,10.0,South,6.9,-,N/A,,Clear,170,2013-03-02 23:53:00
6:53 PM,32.0,24.8,75,30.18,10.0,South,6.9,-,N/A,,Clear,170,2013-03-03 00:53:00
7:53 PM,30.0,24.1,79,30.23,10.0,South,3.5,-,N/A,,Clear,180,2013-03-03 01:53:00
8:53 PM,30.9,25.0,79,30.20,10.0,South,8.1,-,N/A,,Clear,170,2013-03-03 02:53:00
9:53 PM,30.9,25.0,79,30.18,9.0,South,6.9,-,N/A,,Clear,180,2013-03-03 03:53:00
10:53 PM,30.0,24.1,79,30.18,10.0,South,4.6,-,N/A,,Clear,190,2013-03-03 04:53:00
11:53 PM,30.0,25.0,82,30.15,9.0,South,6.9,-,N/A,,Clear,180,2013-03-03 05:53:00